HS2LXA-13 Weather Reports


Display with metric or nautical units.
time (UTC)temp
F
wind
direction
speed
MPH
gust
MPH
rain 1hr
in
rain 24hr
in
rain mn
in
humidity
%
barometer
mb
20260504182005 78 90 10.0 23.0 0.02 0.00 0.04 85 1010.0
20260504181003 79 0 0.0 0.0 0.02 0.00 0.04 83 1010.4
20260504180002 78 22 0.0 0.0 0.02 0.00 0.04 84 1010.5
20260504175008 78 22 1.0 4.0 0.02 0.00 0.04 83 1010.9
20260504174001 77 0 0.0 0.0 0.02 0.00 0.02 83 1010.9
20260504173000 77 225 0.0 0.0 0.01 0.00 0.02 83 1011.1
20260504172000 79 22 3.0 8.0 0.01 0.00 0.02 83 1011.5
20260504170958 78 90 0.0 0.0 0.01 0.00 0.00 82 1011.6
20260504150934 86 22 0.0 0.0 0.00 0.00 0.00 85 1011.9
20260504140911 87 112 0.0 0.0 0.00 0.00 0.00 86 1010.6
20260504081014 95 67 0.0 0.0 0.00 0.00 0.00 74 1007.9
20260504045937 98 112 3.0 7.0 0.00 0.00 0.00 76 1010.6
20260504044936 97 315 6.0 15.0 0.00 0.00 0.00 76 1011.0
20260504043935 97 202 6.0 14.0 0.00 0.00 0.00 76 1011.0
20260504042932 96 112 7.0 15.0 0.00 0.00 0.00 75 1011.1
20260504041931 98 0 6.0 15.0 0.00 0.00 0.00 76 1011.3
20260504040931 97 0 7.0 17.0 0.00 0.00 0.00 73 1011.1
20260504035929 98 67 14.0 33.0 0.00 0.00 0.00 72 1011.4
20260504034928 98 67 20.0 45.0 0.00 0.00 0.00 74 1011.4
20260504033926 98 67 5.0 13.0 0.00 0.00 0.00 74 1011.5
20260504032923 97 0 4.0 10.0 0.00 0.00 0.00 74 1011.8
20260504031921 96 112 3.0 6.0 0.00 0.00 0.00 74 1011.6
20260504030920 95 0 12.0 27.0 0.00 0.00 0.00 74 1011.8
20260504025918 95 0 30.0 67.0 0.00 0.00 0.00 74 1011.8
20260504024912 96 67 7.0 15.0 0.00 0.00 0.00 74 1011.7
20260504023911 96 112 5.0 13.0 0.00 0.00 0.00 75 1011.7
20260504022909 97 67 5.0 11.0 0.00 0.00 0.00 76 1011.5
20260504021906 96 112 5.0 12.0 0.00 0.00 0.00 75 1011.5
20260504020906 96 112 4.0 9.0 0.00 0.00 0.00 76 1011.4
20260504014927 95 67 5.0 11.0 0.00 0.00 0.00 76 1011.5
20260504013926 95 112 9.0 21.0 0.00 0.00 0.00 77 1011.5
20260504012924 95 202 9.0 20.0 0.00 0.00 0.00 78 1011.5
20260504011926 96 202 2.0 6.0 0.00 0.00 0.00 78 1011.3
20260504010922 96 67 13.0 30.0 0.00 0.00 0.00 78 1011.1
20260504005921 99 67 0.0 0.0 0.00 0.00 0.00 79 1011.1
20260504004912 102 112 4.0 9.0 0.00 0.00 0.00 80 1011.0
20260504003910 97 112 2.0 5.0 0.00 0.00 0.00 80 1010.8
20260504002907 96 0 6.0 13.0 0.00 0.00 0.00 81 1010.6
20260504001907 91 315 1.0 2.0 0.00 0.00 0.00 81 1010.6
20260504000907 93 315 8.0 19.0 0.00 0.00 0.00 82 1010.5
20260503235103 91 67 5.0 12.0 0.00 0.00 0.00 82 1010.1
20260503234059 89 67 4.0 9.0 0.00 0.00 0.00 81 1009.8
20260503233058 87 315 1.0 4.0 0.00 0.00 0.00 82 1009.8
20260503232058 86 315 0.0 0.0 0.00 0.00 0.00 81 1009.7
20260503231056 86 0 17.0 38.0 0.00 0.00 0.00 81 1009.6
20260503230055 86 67 8.0 18.0 0.00 0.00 0.00 81 1009.5
20260503225053 86 67 4.0 9.0 0.00 0.00 0.00 81 1009.4
20260503224052 86 202 9.0 20.0 0.00 0.00 0.00 81 1009.4
20260503223051 86 67 1.0 2.0 0.00 0.00 0.00 81 1009.3
20260503222049 86 67 3.0 7.0 0.00 0.00 0.00 81 1009.2
20260503221048 86 67 0.0 1.0 0.00 0.00 0.00 81 1009.1
20260503220043 86 67 0.0 0.0 0.00 0.00 0.00 82 1009.1
20260503215041 87 67 0.0 0.0 0.00 0.00 0.00 81 1009.0
20260503214040 87 67 0.0 0.0 0.00 0.00 0.00 81 1009.0
20260503213039 87 202 8.0 19.0 0.00 0.00 0.00 81 1009.1
20260503212038 86 67 3.0 7.0 0.00 0.00 0.00 81 1009.0
20260503211042 87 67 0.0 1.0 0.00 0.00 0.00 81 1009.1
20260503210037 87 67 1.0 3.0 0.00 0.00 0.00 82 1009.0
20260503205034 87 112 2.0 6.0 0.00 0.00 0.00 82 1009.0
20260503204032 87 67 3.0 6.0 0.00 0.00 0.00 83 1009.0
20260503203055 86 112 3.0 7.0 0.00 0.00 0.00 82 1009.1
20260503202030 87 112 7.0 17.0 0.00 0.00 0.00 82 1009.1
20260503201027 87 0 3.0 7.0 0.00 0.00 0.00 81 1008.9
20260503200021 87 202 9.0 22.0 0.00 0.00 0.00 82 1009.0
20260503195020 87 67 3.0 8.0 0.00 0.00 0.00 82 1009.1
20260503194019 87 0 3.0 7.0 0.00 0.00 0.00 84 1009.3
20260503193024 87 112 0.0 0.0 0.00 0.00 0.00 85 1009.4
20260503192016 87 112 2.0 6.0 0.00 0.00 0.00 85 1009.5
20260503191014 87 67 16.0 36.0 0.00 0.00 0.00 85 1009.6
20260503190015 87 67 2.0 4.0 0.00 0.00 0.00 84 1009.7
20260503185011 87 0 6.0 14.0 0.00 0.00 0.00 84 1010.0
20260503184010 87 225 0.0 1.0 0.00 0.00 0.00 84 1010.0
20260503183008 87 135 6.0 13.0 0.00 0.00 0.00 84 1010.1